date,time,DOY,Ta_1_1_1,Pa_1_1_1,RH_1_1_1,LWin_1_1_1,LWout_1_1_1,SWin_1_1_1,SWout_1_1_1,PPFD_1_1_1,MWS_1_1_1,WD_1_1_1,SWC_1_1_1,Ts_1_1_1
[yyyy-mm-dd],[HH:MM],[ddd.ddd],[K],[Pa],[%],[W+1m-2],[W+1m-2],[W+1m-2],[W+1m-2],[µmol+1m-2s-1],[m+1s-1],[deg],[m+3m-3],[K]
2018-10-07,00:30,280.020,277.73000000000008,95421.366666666669,89.795333333333346,337.83733333333345,336.49966666666666,0.24533333333333338,-0.73766666666666647,4.33333333333333313E-003,0.63666666666666671,19.366666666666667,0.32000000000000012,281.21066666666667
2018-10-07,01:00,280.041,277.57666666666688,95450.233333333337,89.675666666666672,336.92666666666668,335.42166666666657,0.32099999999999990,-0.77233333333333332,2.00000000000000004E-003,0.65666666666666662,37.311000000000000,0.32000000000000012,281.16599999999994
2018-10-07,01:30,280.062,277.53433333333339,95500.899999999994,89.776666666666671,336.74900000000002,335.58700000000005,0.25033333333333341,-0.62033333333333318,5.00000000000000010E-003,1.6600000000000001,71.933333333333337,0.32000000000000012,281.11400000000009
2018-10-07,02:00,280.083,277.46000000000004,95521.100000000006,90.497666666666632,336.54766666666666,335.41999999999990,0.19800000000000001,-0.44133333333333336,8.00000000000000017E-003,1.3433333333333333,39.899333333333331,0.32000000000000012,281.07800000000009
2018-10-07,02:30,280.104,277.45900000000000,95558.566666666666,90.347666666666640,336.44866666666678,335.24866666666668,0.28799999999999998,-0.58066666666666678,3.00000000000000006E-003,1.7733333333333332,73.799999999999983,0.32000000000000012,281.03300000000002
2018-10-07,03:00,280.124,277.26133333333331,95549.500000000000,89.545333333333346,335.48466666666661,334.30433333333332,9.19999999999999984E-002,-0.70266666666666644,2.00000000000000004E-003,1.3966666666666667,42.222666666666662,0.32000000000000012,281.00066666666663
2018-10-07,03:30,280.145,277.16333333333324,95582.233333333337,88.969333333333353,334.78333333333325,333.39166666666659,0.30733333333333346,-0.79600000000000004,1.00000000000000002E-003,0.81333333333333324,20.266666666666666,0.31733333333333341,280.96133333333336
2018-10-07,04:00,280.166,277.14366666666666,95600.899999999994,86.301000000000002,334.40800000000002,332.85433333333333,0.55866666666666664,-1.2703333333333333,5.00000000000000010E-003,0.66333333333333333,6.0886666666666684,0.30999999999999989,280.93133333333327
2018-10-07,04:30,280.187,277.07800000000020,95601.100000000006,83.788666666666657,333.81500000000000,332.17833333333328,0.64233333333333342,-1.3856666666666668,1.00000000000000002E-003,0.63333333333333341,3.3776666666666668,0.30999999999999989,280.89933333333335
2018-10-07,05:00,280.208,276.92566666666670,95602.466666666660,86.309999999999988,333.59933333333339,332.12333333333328,0.35899999999999999,-0.75700000000000001,1.69999999999999978E-002,0.51333333333333331,15.389000000000001,0.30999999999999989,280.87000000000000
2018-10-07,05:30,280.229,276.75133333333343,95600.100000000006,84.170666666666662,332.61133333333333,330.63233333333329,0.42799999999999994,-0.86066666666666669,1.43333333333333385E-002,1.7433333333333332,13.622333333333332,0.30999999999999989,280.83766666666668
2018-10-07,06:00,280.249,276.63333333333338,95628.866666666669,82.572666666666677,331.84300000000002,329.76799999999997,0.38266666666666665,-0.78266666666666651,1.00000000000000002E-003,0.43666666666666665,8.8223333333333347,0.30999999999999989,280.80700000000007
2018-10-07,06:30,280.270,276.53100000000006,95613.300000000003,84.427333333333308,331.56999999999994,329.27733333333339,0.24366666666666673,-0.58133333333333337,9.00000000000000105E-003,0.0000000000000000,0.0000000000000000,0.30999999999999989,280.77066666666673
2018-10-07,07:00,280.291,276.45000000000005,95658.133333333331,83.586000000000013,331.20333333333326,328.74133333333333,0.26800000000000002,-0.56333333333333357,1.13333333333333341E-002,0.25333333333333330,1.7109999999999999,0.30999999999999989,280.73966666666666
2018-10-07,07:30,280.312,276.31800000000010,95660.633333333331,84.624333333333354,330.76633333333319,328.51900000000006,0.19766666666666668,-0.62466666666666648,2.23333333333333300E-002,0.65000000000000002,8.3776666666666664,0.30999999999999989,280.70299999999992
2018-10-07,08:00,280.333,276.16433333333327,95648.533333333340,86.488333333333330,330.05833333333328,328.03399999999999,0.28833333333333327,-0.76999999999999991,2.66666666666666753E-002,0.44000000000000006,0.55533333333333323,0.30999999999999989,280.65600000000001
2018-10-07,08:30,280.354,276.08333333333354,95671.199999999997,86.720000000000013,329.61866666666663,327.69266666666664,0.35399999999999993,-0.80400000000000005,1.66666666666666664E-002,0.26999999999999996,2.3553333333333333,0.30999999999999989,280.61833333333328
2018-10-07,09:00,280.374,275.98333333333335,95681.899999999994,86.356333333333325,329.08100000000002,326.98399999999998,0.32933333333333331,-0.86699999999999988,1.23333333333333368E-002,0.63666666666666671,12.421999999999999,0.30999999999999989,280.57700000000000
2018-10-07,09:30,280.395,275.82766666666680,95726.000000000000,87.134333333333316,328.43633333333344,326.44100000000003,0.23533333333333334,-0.71299999999999986,2.46666666666666701E-002,0.46333333333333343,29.999666666666666,0.30999999999999989,280.53800000000007
2018-10-07,10:00,280.416,275.76000000000016,95745.233333333337,87.218666666666650,328.05100000000004,325.93133333333327,0.39333333333333331,-0.71766666666666645,9.00000000000000105E-003,0.54333333333333322,20.666666666666671,0.30999999999999989,280.49800000000010
2018-10-07,10:30,280.437,275.73333333333341,95753.333333333328,87.118333333333354,327.97233333333338,325.94599999999997,0.35599999999999998,-0.75633333333333319,1.86666666666666682E-002,0.49666666666666665,3.3446666666666669,0.30999999999999989,280.46299999999997
2018-10-07,11:00,280.458,275.58533333333338,95734.133333333331,88.302333333333351,327.45999999999998,325.75066666666669,0.21400000000000002,-0.56099999999999994,1.70000000000000012E-002,1.6466666666666669,15.533333333333333,0.30999999999999989,280.42866666666669
2018-10-07,11:30,280.479,275.45466666666670,95746.800000000003,88.145333333333340,326.79899999999998,324.77633333333330,0.26233333333333325,-0.63966666666666672,1.56666666666666690E-002,1.3066666666666669,12.867000000000001,0.30999999999999989,280.38433333333342
2018-10-07,12:00,280.499,275.35000000000002,95794.800000000003,86.472000000000023,326.27266666666668,324.11700000000002,0.27200000000000002,-0.59033333333333327,0.30133333333333329,0.28333333333333333,1.5443333333333333,0.30999999999999989,280.34466666666674
2018-10-07,12:30,280.520,275.31466666666677,95833.866666666669,87.428000000000026,326.10499999999996,324.18866666666662,0.58833333333333326,2.0253333333333332,5.5293333333333345,0.94000000000000006,7.7333333333333334,0.30999999999999989,280.31466666666677
2018-10-07,13:00,280.541,275.19100000000003,95850.433333333334,88.777666666666661,325.75966666666670,324.12766666666658,1.4759999999999998,9.2133333333333329,20.163000000000000,1.5500000000000000,12.910999999999998,0.30999999999999989,280.28566666666671
2018-10-07,13:30,280.562,275.03666666666675,95819.333333333328,89.514666666666642,325.45933333333329,323.97666666666663,3.5660000000000007,23.857333333333330,49.945000000000000,2.3466666666666667,17.477666666666668,0.30999999999999989,280.25133333333332
2018-10-07,14:00,280.583,275.05700000000013,95872.300000000003,89.317666666666682,325.99399999999997,324.45999999999992,7.7706666666666671,50.801999999999992,104.43833333333333,2.3299999999999996,28.421666666666663,0.30999999999999989,280.21800000000002
2018-10-07,14:30,280.604,275.19133333333332,95875.233333333337,89.189999999999984,327.41466666666668,325.77266666666668,13.444999999999999,84.740333333333325,171.36300000000000,1.4699999999999998,21.799999999999997,0.30999999999999989,280.19033333333334
2018-10-07,15:00,280.624,275.31266666666659,95891.466666666660,88.205999999999989,328.44499999999994,326.62433333333337,18.077999999999999,114.00900000000001,231.55566666666664,2.0200000000000000,23.677333333333330,0.30999999999999989,280.17433333333332
2018-10-07,15:30,280.645,275.59633333333335,95911.966666666660,87.484333333333325,330.68333333333334,328.59833333333336,22.467333333333332,139.39933333333329,282.98599999999993,1.3599999999999999,28.300000000000001,0.30999999999999989,280.16433333333327
2018-10-07,16:00,280.666,275.82566666666662,95903.666666666672,86.164999999999978,331.66333333333347,329.25066666666669,22.408333333333335,135.62066666666666,275.89333333333332,2.0099999999999998,32.232666666666674,0.30999999999999989,280.17133333333334
2018-10-07,16:30,280.687,276.08533333333338,95878.000000000000,85.103999999999999,333.55866666666674,330.74566666666664,27.629000000000005,168.26733333333331,340.44666666666666,1.8133333333333332,22.589333333333329,0.30999999999999989,280.18266666666659
2018-10-07,17:00,280.708,276.46566666666678,95863.433333333334,83.130000000000024,336.88699999999994,333.03499999999997,36.407000000000011,223.39166666666668,447.33499999999998,2.4699999999999998,54.332999999999998,0.30999999999999989,280.20166666666665
2018-10-07,17:30,280.729,276.63333333333333,95851.566666666666,82.140000000000015,338.11300000000000,333.27666666666659,40.010333333333328,245.13899999999998,493.09100000000007,2.1433333333333331,31.488999999999994,0.30999999999999989,280.23200000000003
2018-10-07,18:00,280.749,277.27766666666662,95832.966666666660,79.006333333333345,341.33566666666655,332.18533333333352,38.773333333333326,240.63466666666670,479.21833333333331,1.4266666666666665,53.454666666666654,0.30999999999999989,280.27166666666676
2018-10-07,18:30,280.770,277.51499999999999,95814.766666666663,77.392666666666685,341.70400000000006,331.51333333333338,31.955666666666666,200.21166666666662,405.26499999999999,2.0666666666666669,34.967333333333322,0.30999999999999989,280.31800000000010
2018-10-07,19:00,280.791,277.41600000000000,95812.533333333340,77.241999999999990,340.25433333333331,330.45599999999996,23.518666666666668,149.53566666666663,307.42700000000002,1.5300000000000002,40.444333333333340,0.30999999999999989,280.36633333333339
2018-10-07,19:30,280.812,277.31000000000000,95809.466666666660,77.872333333333316,339.19499999999994,329.95666666666676,19.574666666666669,124.58333333333333,256.82299999999992,1.7466666666666666,72.144666666666666,0.30999999999999989,280.40733333333333
2018-10-07,20:00,280.833,277.42466666666672,95804.566666666666,77.648333333333341,340.17766666666660,330.34533333333337,24.053333333333335,150.10266666666666,308.07600000000002,1.4666666666666663,41.633000000000003,0.30999999999999989,280.43466666666660
2018-10-07,20:30,280.854,277.44866666666672,95786.100000000006,76.812333333333342,340.19899999999996,330.15733333333327,23.053666666666665,145.65233333333333,296.97000000000003,0.94666666666666677,16.232999999999997,0.30999999999999989,280.46466666666669
2018-10-07,21:00,280.874,277.53900000000016,95763.933333333334,75.253666666666675,340.29299999999995,328.98166666666674,26.205333333333321,161.60899999999998,324.95866666666666,0.75333333333333330,8.9883333333333315,0.30999999999999989,280.49366666666657
2018-10-07,21:30,280.895,277.72633333333340,95758.133333333331,74.891666666666680,340.63833333333332,329.11966666666666,21.685666666666666,132.78233333333333,266.46133333333336,0.63000000000000000,6.2780000000000014,0.30999999999999989,280.52333333333337
2018-10-07,22:00,280.916,277.81233333333330,95746.566666666666,75.343000000000004,339.89466666666664,329.50266666666658,12.408666666666671,78.021333333333331,158.85333333333332,0.64333333333333331,9.0446666666666662,0.30999999999999989,280.54766666666671
2018-10-07,22:30,280.937,277.78000000000003,95734.666666666672,76.430666666666681,339.24233333333331,328.51666666666671,9.4453333333333358,57.286666666666655,116.77066666666666,1.3000000000000000,24.110666666666663,0.30999999999999989,280.56666666666666
2018-10-07,23:00,280.958,277.81566666666674,95724.633333333331,76.837666666666692,339.13766666666663,329.04433333333333,7.2556666666666674,41.640333333333338,79.862333333333325,1.3600000000000001,14.077333333333332,0.30999999999999989,280.57566666666668
2018-10-07,23:30,280.979,277.79566666666676,95727.966666666660,78.057999999999993,337.72399999999999,325.43566666666669,1.2163333333333337,6.4629999999999983,14.487666666666662,1.3699999999999999,17.021999999999998,0.30999999999999989,280.58233333333339
2018-10-08,00:00,281.000,277.65566666666666,95702.533333333340,79.927666666666681,336.56500000000000,320.62966666666671,0.29466666666666669,-0.68099999999999983,0.86766666666666648,1.6600000000000004,21.888666666666666,0.30999999999999989,280.58833333333337
